• en Suisse
  • Liste des pays
  • À 7 jours
  • Température de l'eau
  • Carte satellitaire
  • Carte météo
  • Widgets météo
  • user-avatar
    Se connecter

    Météo par heure à Tinheyri

    Ce jour, 18 Octobre, Jeudi

    Heure Température Précipitation Vent Pression Humidité
    00:00 -2°C° 0.2 mm 6 m/s 725 mmHg 85%
    01:00 -2°C° 0.2 mm 7 m/s 724 mmHg 86%
    02:00 -1°C° 0.4 mm 7 m/s 723 mmHg 87%
    03:00 -1°C° 0.4 mm 8 m/s 722 mmHg 87%
    04:00 -1°C° 0.4 mm 8 m/s 721 mmHg 87%
    05:00 -1°C° 0.3 mm 7 m/s 720 mmHg 89%
    06:00 0°C° 0.3 mm 7 m/s 719 mmHg 91%
    07:00 +1°C° 0.3 mm 6 m/s 719 mmHg 93%
    08:00 +1°C° 0.1 mm 6 m/s 718 mmHg 94%
    09:00 +1°C° 0.1 mm 5 m/s 717 mmHg 95%
    10:00 +2°C° 0.1 mm 5 m/s 717 mmHg 96%
    11:00 +2°C° 0.5 mm 5 m/s 716 mmHg 96%
    12:00 +2°C° 0.5 mm 5 m/s 715 mmHg 97%
    13:00 +3°C° 0.5 mm 4 m/s 714 mmHg 97%
    14:00 +3°C° 0.4 mm 4 m/s 714 mmHg 97%
    15:00 +3°C° 0.4 mm 4 m/s 713 mmHg 96%
    16:00 +3°C° 0.4 mm 4 m/s 713 mmHg 96%
    17:00 +2°C° 0.2 mm 5 m/s 713 mmHg 95%
    18:00 +2°C° 0.2 mm 5 m/s 712 mmHg 94%
    19:00 +2°C° 0.2 mm 6 m/s 712 mmHg 93%
    20:00 +2°C° 0.1 mm 6 m/s 712 mmHg 93%
    21:00 +1°C° 0.1 mm 5 m/s 711 mmHg 92%
    22:00 +1°C° 0.1 mm 5 m/s 711 mmHg 92%
    23:00 +1°C° 0.4 mm 5 m/s 711 mmHg 92%

    Demain, 19 Octobre, Vendredi

    Heure Température Précipitation Vent Pression Humidité
    00:00 +1°C° 0.4 mm 5 m/s 710 mmHg 93%
    01:00 +1°C° 0.4 mm 4 m/s 710 mmHg 93%
    02:00 +1°C° 0.4 mm 5 m/s 710 mmHg 93%
    03:00 +2°C° 0.4 mm 5 m/s 710 mmHg 93%
    04:00 +2°C° 0.4 mm 5 m/s 711 mmHg 94%
    05:00 +2°C° 0.2 mm 6 m/s 711 mmHg 93%
    06:00 +2°C° 0.2 mm 7 m/s 712 mmHg 93%
    07:00 +2°C° 0.2 mm 7 m/s 713 mmHg 92%
    08:00 +2°C° 0.2 mm 7 m/s 714 mmHg 91%
    09:00 +2°C° 0.2 mm 7 m/s 715 mmHg 90%
    10:00 +2°C° 0.2 mm 7 m/s 716 mmHg 90%
    11:00 +1°C° 0.2 mm 9 m/s 717 mmHg 89%
    12:00 +1°C° 0.2 mm 10 m/s 718 mmHg 88%
    13:00 +1°C° 0.2 mm 11 m/s 718 mmHg 87%
    14:00 +1°C° 0.2 mm 11 m/s 719 mmHg 86%
    15:00 0°C° 0.2 mm 10 m/s 720 mmHg 86%
    16:00 0°C° 0.2 mm 10 m/s 721 mmHg 86%
    17:00 0°C° 0.1 mm 10 m/s 721 mmHg 84%
    18:00 -1°C° 0.1 mm 9 m/s 721 mmHg 82%
    19:00 -1°C° 0.1 mm 9 m/s 721 mmHg 80%
    20:00 -1°C° 0 mm 8 m/s 721 mmHg 81%
    21:00 -1°C° 0 mm 7 m/s 720 mmHg 81%
    22:00 -1°C° 0 mm 6 m/s 719 mmHg 82%
    23:00 -1°C° 1 mm 7 m/s 717 mmHg 84%

    Après-demain, 20 Octobre, Samedi

    Heure Température Précipitation Vent Pression Humidité
    00:00 -1°C° 1 mm 7 m/s 715 mmHg 86%
    01:00 -1°C° 1 mm 8 m/s 713 mmHg 88%
    02:00 -1°C° 1.2 mm 8 m/s 712 mmHg 90%
    03:00 -1°C° 1.2 mm 7 m/s 710 mmHg 92%
    04:00 0°C° 1.2 mm 7 m/s 709 mmHg 94%
    05:00 +1°C° 0.1 mm 6 m/s 708 mmHg 95%
    06:00 +1°C° 0.1 mm 6 m/s 707 mmHg 96%
    07:00 +1°C° 0.1 mm 5 m/s 706 mmHg 97%
    08:00 0°C° 0.5 mm 7 m/s 706 mmHg 94%
    09:00 0°C° 0.5 mm 9 m/s 706 mmHg 91%
    10:00 0°C° 0.5 mm 10 m/s 706 mmHg 88%
    11:00 -1°C° 0.4 mm 12 m/s 707 mmHg 87%
    12:00 -1°C° 0.4 mm 13 m/s 707 mmHg 85%
    13:00 -1°C° 0.4 mm 14 m/s 708 mmHg 83%
    14:00 -1°C° 0.3 mm 15 m/s 708 mmHg 82%
    15:00 -1°C° 0.3 mm 15 m/s 708 mmHg 81%
    16:00 -1°C° 0.3 mm 15 m/s 707 mmHg 81%
    17:00 -2°C° 1.2 mm 17 m/s 708 mmHg 82%
    18:00 -2°C° 1.2 mm 18 m/s 708 mmHg 83%
    19:00 -2°C° 1.2 mm 19 m/s 708 mmHg 85%
    20:00 -2°C° 1 mm 19 m/s 709 mmHg 84%
    21:00 -2°C° 1 mm 19 m/s 709 mmHg 83%
    22:00 -3°C° 1 mm 19 m/s 710 mmHg 83%
    23:00 -3°C° 1.1 mm 18 m/s 711 mmHg 82%

    21 Octobre, Dimanche

    Heure Température Précipitation Vent Pression Humidité
    00:00 -4°C° 1.1 mm 17 m/s 712 mmHg 81%
    01:00 -4°C° 1.1 mm 17 m/s 713 mmHg 80%
    02:00 -4°C° 1 mm 14 m/s 713 mmHg 81%
    03:00 -3°C° 1 mm 12 m/s 714 mmHg 81%
    04:00 -3°C° 1 mm 10 m/s 714 mmHg 82%
    05:00 -3°C° 0.5 mm 9 m/s 715 mmHg 84%
    06:00 -3°C° 0.5 mm 7 m/s 716 mmHg 86%
    07:00 -3°C° 0.5 mm 6 m/s 716 mmHg 88%
    08:00 -2°C° 0.1 mm 5 m/s 717 mmHg 88%
    09:00 -2°C° 0.1 mm 5 m/s 718 mmHg 88%
    10:00 -2°C° 0.1 mm 4 m/s 719 mmHg 88%
    11:00 -2°C° 0 mm 4 m/s 720 mmHg 86%
    12:00 -1°C° 0 mm 3 m/s 721 mmHg 84%
    13:00 -1°C° 0 mm 3 m/s 722 mmHg 81%
    14:00 -2°C° 0.1 mm 4 m/s 723 mmHg 81%
    15:00 -3°C° 0.1 mm 6 m/s 724 mmHg 81%
    16:00 -3°C° 0.1 mm 7 m/s 724 mmHg 81%
    17:00 -4°C° 0 mm 9 m/s 725 mmHg 78%
    18:00 -4°C° 0 mm 10 m/s 725 mmHg 75%
    19:00 -3°C° 0 mm 11 m/s 726 mmHg 72%
    20:00 -3°C° 0 mm 11 m/s 726 mmHg 72%
    21:00 -3°C° 0 mm 12 m/s 726 mmHg 72%
    22:00 -3°C° 0 mm 12 m/s 727 mmHg 72%
    23:00 -3°C° 0 mm 12 m/s 727 mmHg 73%

    22 Octobre, Lundi

    Heure Température Précipitation Vent Pression Humidité
    00:00 -3°C° 0 mm 12 m/s 728 mmHg 75%
    01:00 -3°C° 0 mm 12 m/s 728 mmHg 76%
    02:00 -3°C° 0 mm 11 m/s 729 mmHg 76%
    03:00 -3°C° 0 mm 11 m/s 729 mmHg 76%
    04:00 -3°C° 0 mm 10 m/s 730 mmHg 77%
    05:00 -3°C° 0 mm 9 m/s 731 mmHg 77%
    06:00 -2°C° 0 mm 8 m/s 731 mmHg 76%
    07:00 -2°C° 0 mm 7 m/s 732 mmHg 76%
    08:00 -2°C° 0 mm 6 m/s 733 mmHg 77%
    09:00 0°C° 0 mm 5 m/s 733 mmHg 78%
    10:00 0°C° 0 mm 4 m/s 734 mmHg 78%
    11:00 0°C° 0.3 mm 4 m/s 734 mmHg 83%
    12:00 0°C° 0.3 mm 4 m/s 735 mmHg 87%
    13:00 +1°C° 0.3 mm 3 m/s 735 mmHg 92%
    14:00 +1°C° 1 mm 4 m/s 735 mmHg 94%
    15:00 +1°C° 1 mm 5 m/s 735 mmHg 96%
    16:00 +1°C° 1 mm 5 m/s 735 mmHg 98%
    17:00 +2°C° 1.3 mm 6 m/s 735 mmHg 98%
    18:00 +2°C° 1.3 mm 7 m/s 735 mmHg 98%
    19:00 +2°C° 1.3 mm 7 m/s 736 mmHg 98%
    20:00 +2°C° 1.6 mm 8 m/s 735 mmHg 98%
    21:00 +2°C° 1.6 mm 9 m/s 735 mmHg 98%
    22:00 +2°C° 1.6 mm 9 m/s 734 mmHg 98%
    23:00 +2°C° 1.5 mm 9 m/s 734 mmHg 98%

    23 Octobre, Mardi

    Heure Température Précipitation Vent Pression Humidité
    00:00 +2°C° 1.5 mm 10 m/s 733 mmHg 98%
    01:00 +2°C° 1.5 mm 10 m/s 733 mmHg 98%
    02:00 +2°C° 2.2 mm 10 m/s 733 mmHg 98%
    03:00 +3°C° 2.2 mm 11 m/s 733 mmHg 98%
    04:00 +3°C° 2.2 mm 11 m/s 732 mmHg 97%
    05:00 +3°C° 0.9 mm 11 m/s 732 mmHg 98%
    06:00 +2°C° 0.9 mm 11 m/s 733 mmHg 98%
    07:00 +2°C° 0.9 mm 11 m/s 733 mmHg 98%
    08:00 +2°C° 0.1 mm 11 m/s 733 mmHg 98%
    09:00 +2°C° 0.1 mm 10 m/s 733 mmHg 98%
    10:00 +2°C° 0.1 mm 10 m/s 733 mmHg 98%
    11:00 +2°C° 0.3 mm 10 m/s 733 mmHg 98%
    12:00 +2°C° 0.3 mm 9 m/s 733 mmHg 98%
    13:00 +2°C° 0.3 mm 9 m/s 733 mmHg 98%
    14:00 +2°C° 0.8 mm 8 m/s 733 mmHg 98%
    15:00 +2°C° 0.8 mm 8 m/s 732 mmHg 98%
    16:00 +2°C° 0.8 mm 8 m/s 732 mmHg 98%
    17:00 +2°C° 0.8 mm 8 m/s 732 mmHg 98%
    18:00 +2°C° 0.8 mm 9 m/s 731 mmHg 97%
    19:00 +2°C° 0.8 mm 9 m/s 731 mmHg 97%
    20:00 +2°C° 1.2 mm 10 m/s 731 mmHg 97%
    21:00 +2°C° 1.2 mm 11 m/s 730 mmHg 97%
    22:00 +2°C° 1.2 mm 12 m/s 730 mmHg 97%
    23:00 +3°C° 1.7 mm 12 m/s 729 mmHg 97%
    Voir plus